Flag for Germany Weather past 2 weeks in Lohmar, North Rhine-Westphalia, Germany

Now
91 °F

Sunny.


Feels Like: 88 °F
Forecast: 71 / 94 °F
Wind: 10 mph from Southeast

Location: Koeln / Bonn

Current Time: Jul 1, 2015 at 7:14:53 PM

Latest Report: Jul 1, 2015 at 6:20 PM


Visibility: 10 mi

Pressure: 30.01 "Hg

Humidity: 24%

Dew point: 50 °F

Location of LohmarLocation

Historic Weather in Lohmar — Graph

°F

Lohmar temperature yesterday

Maximum temperature yesterday: 84 °F (at 4:20 PM)
Minimum temperature yesterday: 52 °F (at 6:20 AM)
Average temperature yesterday: 70 °F

Past Weeks' High & Low Weather Summary

 TemperatureHumidityPressure
High91 °F (Jul 1, 4:20 PM)94% (Jun 18, 3:50 AM)30.30 "Hg (Jun 18, 3:50 AM)
Low39 °F (Jun 17, 6:20 AM)17% (Jun 30, 3:50 PM)29.68 "Hg (Jun 22, 9:20 PM)
Average62 °F68%30.08 "Hg
* Reported Jun 16 6:20 PM — Jul 1 6:20 PM, Lohmar, Weather by CustomWeather, © 2015

Note: Actual official high and low records may vary slightly from our data, if they occured in-between our weather recording intervals... More about our weather records

Advertising

Lohmar weather history for previous 24 hours

 ConditionsComfort  
Time TempWeatherWind HumidityBarometerVisibility
6:20 PM
Wed, Jul 1
91 °FSunny.10 mph24%30.01 "Hg10 mi
5:50 PM91 °FSunny.10 mph24%30.04 "Hg10 mi
5:20 PM90 °FSunny.12 mph26%30.04 "Hg10 mi
4:50 PM91 °FSunny.12 mph28%30.04 "Hg10 mi
4:20 PM91 °FSunny.13 mph28%30.04 "Hg10 mi
3:50 PM90 °FSunny.12 mph29%30.04 "Hg10 mi
3:20 PM90 °FSunny.12 mph27%30.04 "Hg10 mi
2:50 PM90 °FSunny.14 mph27%30.04 "Hg10 mi
2:20 PM90 °FSunny.13 mph27%30.04 "Hg10 mi
1:50 PM88 °FSunny.12 mph31%30.07 "Hg10 mi
1:20 PM86 °FSunny.12 mph29%30.07 "Hg10 mi
12:50 PM88 °FSunny.14 mph29%30.07 "Hg10 mi
12:20 PM86 °FSunny.13 mph29%30.07 "Hg10 mi
11:50 AM86 °FSunny.12 mph35%30.09 "Hg10 mi
11:20 AM82 °FSunny.10 mph42%30.09 "Hg10 mi
10:50 AM81 °FSunny.10 mph42%30.09 "Hg10 mi
10:20 AM81 °FSunny.9 mph45%30.09 "Hg10 mi
9:50 AM77 °FSunny.8 mph51%30.09 "Hg10 mi
9:20 AM75 °FSunny.9 mph50%30.09 "Hg10 mi
8:50 AM73 °FSunny.7 mph53%30.09 "Hg10 mi
8:20 AM72 °FSunny.7 mph57%30.09 "Hg10 mi
7:50 AM70 °FSunny.6 mph57%30.09 "Hg10 mi
7:20 AM68 °FSunny.6 mph60%30.09 "Hg10 mi
6:50 AM64 °FSunny.5 mph68%30.09 "Hg10 mi
6:20 AM64 °FClear.3 mph64%30.09 "Hg10 mi
5:50 AM61 °FClear.3 mph72%30.09 "Hg10 mi
5:20 AM63 °FPassing clouds.6 mph68%30.09 "HgN/A
4:50 AM59 °FClear.6 mph82%30.09 "Hg10 mi
4:20 AM57 °FClear.6 mph77%30.09 "Hg10 mi
3:50 AM59 °FClear.5 mph77%30.09 "Hg10 mi
3:20 AM64 °FClear.5 mph64%30.09 "Hg10 mi
2:50 AM63 °FClear.5 mph68%30.09 "Hg10 mi
2:20 AM66 °FClear.5 mph60%30.09 "Hg10 mi
1:50 AM68 °FClear.5 mph60%30.09 "Hg10 mi
1:20 AM68 °FClear.5 mph60%30.09 "Hg10 mi
12:50 AM70 °FClear.6 mph57%30.09 "Hg10 mi
12:20 AM72 °FClear.7 mph53%30.09 "Hg10 mi
11:50 PM
Tue, Jun 30
72 °FClear.7 mph53%30.09 "Hg10 mi
11:20 PM72 °FClear.9 mph53%30.09 "Hg10 mi
10:50 PM73 °FClear.8 mph50%30.09 "Hg10 mi
10:20 PM75 °FSunny.8 mph50%30.09 "Hg10 mi
9:50 PM75 °FSunny.7 mph47%30.09 "Hg10 mi
9:20 PM77 °FSunny.3 mph44%30.09 "Hg10 mi
8:50 PM81 °FSunny.2 mph42%30.09 "Hg10 mi
8:20 PM82 °FSunny.2 mph28%30.09 "Hg10 mi
7:50 PM82 °FSunny.2 mph26%30.09 "Hg10 mi
Weather by CustomWeather, © 2015

See weather overviewHow to use our weather pages